Wind_Speed
30 31 30 34 32 34 36 38 42 40 35 36 37 38 38 34 29 26 27 26 26 30
31 29 31 32 35 35 38 39 40 41 41 36 39 40 43 41 33 26 30 34 36 36
34 31 29 29 35 34 37 39 41 39 38 35 37 42 44 40 41 34 33 32 32 35
33 33 34 34 32 36 34 36 39 43 41 40 37 39 38 38 36 35 35 36 34 34
33 34 36 37 37 35 36 36 39 37 42 43 43 39 40 38 38 38 35 35 35 36
33 33 35 36 35 35 36 37 37 39 40 42 44 43 43 43 42 40 38 38 38 37
34 35 35 33 33 34 37 36 37 40 39 41 41 43 43 43 43 43 42 42 41 41
32 31 31 33 34 35 35 36 38 37 40 38 40 41 42 44 43 42 42 43 44 43
31 32 34 34 34 35 37 38 38 39 40 39 41 41 45 43 40 39 39 38 40 43
31 33 35 35 34 37 38 37 40 39 39 41 42 43 46 47 43 37 37 39 35 36
32 34 33 34 37 37 36 37 36 38 38 38 40 40 44 43 46 40 39 34 35 37
30 29 30 31 35 35 32 33 35 33 34 36 35 36 36 37 40 37 33 31 30 30
30 31 31 33 31 30 31 31 28 29 33 35 34 35 36 35 38 32 26 19 17 12
24 29 32 31 30 28 27 26 28 23 15 16 20 23 27 31 33 34 24 20 18 17
Wind_Direction
196 201 196 192 199 204 206 209 209 209 213 211 212 215 216 218 219 220 233 231 234 241
204 200 194 196 199 205 210 214 214 213 214 218 221 222 221 222 224 230 240 240 241 239
208 207 205 199 203 203 207 209 214 214 215 216 218 221 223 224 227 231 233 235 240 242
205 207 209 214 210 206 206 204 208 212 214 217 217 219 220 221 221 225 231 234 235 241
203 204 207 210 209 208 208 209 209 209 210 214 217 217 216 219 221 225 230 232 234 239
207 207 210 211 210 210 210 211 211 212 212 213 215 216 218 219 223 226 231 235 237 239
211 212 214 215 214 211 211 210 210 210 213 214 216 217 220 221 225 228 232 236 237 238
216 218 219 218 217 216 215 214 216 214 215 215 216 218 220 222 225 229 232 233 235 237
219 217 221 222 219 218 219 218 218 217 216 216 219 219 219 219 222 225 228 231 235 239
221 220 221 221 219 221 219 218 220 221 221 221 222 224 225 225 224 228 234 237 237 240
224 225 225 220 221 223 221 219 219 222 223 226 228 228 229 229 229 228 236 235 242 247
224 229 230 226 225 225 222 222 223 224 225 229 232 232 233 230 231 225 223 229 234 233
224 223 227 226 226 226 223 224 223 224 227 228 227 229 229 225 218 205 205 209 213 215
341 226 226 229 225 220 217 216 211 200 197 208 214 212 222 221 209 202 173 156 138 135
Height
740 745 749 752 757 761 765 768 773 778 783 787 791 796 801 805 808 811 815 818 820 823
736 740 743 747 751 755 760 764 767 770 775 779 784 788 792 797 800 804 807 810 813 816
727 733 738 742 744 748 751 756 761 766 769 774 777 780 785 789 792 796 801 804 806 807
721 725 730 733 736 740 745 748 752 756 761 767 771 775 778 781 785 788 792 795 798 799
714 718 721 724 727 732 736 741 744 749 753 757 762 766 770 775 778 782 784 788 792 792
705 709 712 716 721 725 729 732 737 740 742 746 750 756 759 763 769 772 775 779 782 783
696 699 704 709 713 717 720 724 727 730 734 737 741 745 749 753 757 760 763 766 770 772
689 695 699 701 704 708 712 715 719 722 725 728 732 734 738 742 745 749 753 756 758 760
683 687 690 693 696 700 703 705 709 711 714 718 720 722 726 731 736 740 743 745 747 748
673 676 678 683 688 688 691 696 698 702 705 706 710 712 717 721 726 731 733 734 737 739
664 666 670 674 676 678 682 685 688 692 695 700 701 704 707 713 718 722 723 725 728 730
653 659 664 666 667 670 675 677 679 684 689 691 693 697 700 705 708 711 713 717 719 721
645 646 651 654 658 663 668 670 675 678 680 682 685 688 691 695 696 700 705 709 713 715
645 641 642 645 651 654 660 664 665 668 674 677 679 680 683 686 689 692 698 704 709 715